Flag for Israel Weather past 2 weeks in Holon, Israel

Now
50 °F

Sunny.


Feels Like: 48 °F
Forecast: 54 / 71 °F
Wind: 5 mph from Southeast

Location: Dov Airport

Current Time: Feb 1, 2015 at 8:02:45 AM

Latest Report: Feb 1, 2015 at 6:50 AM


Visibility: 10 mi

Pressure: 30.07 "Hg

Humidity: 58%

Dew point: 36 °F

Location of HolonLocation

Historic Weather in Holon — Graph

°F

Holon temperature yesterday

Maximum temperature yesterday: 66 °F (at 12:50 PM)
Minimum temperature yesterday: 52 °F (at 6:00 AM)
Average temperature yesterday: 60 °F

Past Weeks' High & Low Weather Summary

 TemperatureHumidityPressure
High72 °F (Jan 21, 3:50 PM)94% (Jan 25, 7:50 PM)30.30 "Hg (Jan 25, 7:50 PM)
Low48 °F (Jan 18, 5:50 AM)31% (Jan 24, 9:50 AM)29.86 "Hg (Jan 27, 10:50 PM)
Average60 °F62%30.06 "Hg
* Reported Jan 17 6:00 AM — Feb 1 6:50 AM, Holon, Weather by CustomWeather, © 2014

Note: Actual official high and low records may vary slightly from our data, if they occured in-between our weather recording intervals... More about our weather records

Advertising

Holon weather history for previous 24 hours

 ConditionsComfort  
Time TempWeatherWind HumidityBarometerVisibility
6:50 AM
Feb 1
50 °FSunny.5 mph58%30.07 "Hg10 mi
5:50 AM50 °FClear.6 mph58%30.07 "Hg10 mi
10:50 PM
Jan 31
54 °FClear.7 mph58%30.12 "Hg10 mi
9:50 PM55 °FClear.6 mph55%30.12 "Hg10 mi
8:50 PM57 °FClear.6 mph51%30.12 "Hg10 mi
7:50 PM57 °FClear.6 mph51%30.09 "Hg10 mi
6:50 PM59 °FClear.1 mph51%30.09 "Hg10 mi
5:50 PM63 °FClear.3 mph42%30.09 "Hg10 mi
4:50 PM63 °FSunny.5 mph39%30.09 "Hg10 mi
3:50 PM64 °FSunny.3 mph34%30.09 "Hg10 mi
2:50 PM64 °FSunny.6 mph37%30.09 "Hg10 mi
1:50 PM66 °FSunny.7 mph35%30.09 "Hg10 mi
12:50 PM66 °FSunny.8 mph35%30.09 "Hg10 mi
11:50 AM64 °FSunny.8 mph34%30.12 "Hg10 mi
10:50 AM64 °FSunny.6 mph37%30.12 "Hg10 mi
9:50 AM63 °FSunny.5 mph34%30.12 "Hg10 mi
8:50 AM57 °FSunny.7 mph44%30.12 "Hg10 mi
Weather by CustomWeather, © 2014

See weather overviewHow to use our weather pages